contact:dominique.lefevre@mio.osupytheas.fr, maurice.libes@osupytheas.fr, didier.mallarino@osupytheas.fr
Project:EMSO http://www.emso-fr.org/EMSO-France
Depth: 2436.0 m
Title:EMSO Ligure Ouest : Data MII capteur CSTAR
DateTime,Latitude,Longitude,Instrument_Serial,Reference_Counts,Signal_Counts,Corrected_Signal_raw_counts,Calculated_Beam_c_inverse_meters,Internal_thermistor_counts
DateTime,Latitude,Longitude,Instrument_Serial,Reference_Counts,Signal_Counts,Corrected_Signal_raw_counts,Calculated_Beam_c_inverse_meters,Internal_thermistor_counts
2019-05-30T00:02:30,42.805,6.029,CST-1368DR,9292,12999,15561,0.014,551
2019-05-30T00:05:32,42.805,6.029,CST-1368DR,9292,12999,15562,0.014,551
2019-05-30T00:08:33,42.805,6.029,CST-1368DR,9291,12998,15562,0.014,551
2019-05-30T00:11:34,42.805,6.029,CST-1368DR,9291,12999,15563,0.014,551
2019-05-30T00:14:36,42.805,6.029,CST-1368DR,9292,13000,15563,0.014,551
2019-05-30T00:17:37,42.805,6.029,CST-1368DR,9291,13000,15565,0.013,551
2019-05-30T00:20:39,42.805,6.029,CST-1368DR,9291,12998,15562,0.014,551
2019-05-30T00:23:40,42.805,6.029,CST-1368DR,9291,12999,15563,0.014,551
2019-05-30T00:26:41,42.805,6.029,CST-1368DR,9291,12999,15563,0.014,551
2019-05-30T00:29:43,42.805,6.029,CST-1368DR,9291,12997,15561,0.014,551
2019-05-30T00:32:44,42.805,6.029,CST-1368DR,9291,12999,15563,0.014,551
2019-05-30T00:35:46,42.805,6.029,CST-1368DR,9291,12999,15563,0.014,551
2019-05-30T00:38:47,42.805,6.029,CST-1368DR,9291,12999,15563,0.014,551
2019-05-30T00:41:48,42.805,6.029,CST-1368DR,9291,13000,15564,0.013,551
2019-05-30T00:44:50,42.805,6.029,CST-1368DR,9291,12999,15563,0.014,551
2019-05-30T00:47:51,42.805,6.029,CST-1368DR,9291,12998,15562,0.014,551
2019-05-30T00:50:53,42.805,6.029,CST-1368DR,9291,12999,15563,0.014,551
2019-05-30T00:53:54,42.805,6.029,CST-1368DR,9291,12998,15562,0.014,551
2019-05-30T00:56:56,42.805,6.029,CST-1368DR,9291,12999,15563,0.014,551
2019-05-30T00:59:57,42.805,6.029,CST-1368DR,9291,12998,15562,0.014,551
2019-05-30T01:02:58,42.805,6.029,CST-1368DR,9291,12999,15563,0.014,550
2019-05-30T01:06:00,42.805,6.029,CST-1368DR,9291,12997,15561,0.014,551
2019-05-30T01:09:01,42.805,6.029,CST-1368DR,9291,12995,15559,0.015,551
2019-05-30T01:12:03,42.805,6.029,CST-1368DR,9291,12998,15562,0.014,551
2019-05-30T01:15:04,42.805,6.029,CST-1368DR,9291,12998,15562,0.014,551
2019-05-30T01:18:05,42.805,6.029,CST-1368DR,9291,12996,15560,0.014,551
2019-05-30T01:21:07,42.805,6.029,CST-1368DR,9291,12997,15560,0.014,551
2019-05-30T01:24:08,42.805,6.029,CST-1368DR,9291,12998,15561,0.014,551
2019-05-30T01:27:10,42.805,6.029,CST-1368DR,9291,12997,15561,0.014,551
2019-05-30T01:30:11,42.805,6.029,CST-1368DR,9291,12998,15561,0.014,550
2019-05-30T01:33:12,42.805,6.029,CST-1368DR,9291,12994,15557,0.015,551
2019-05-30T01:36:14,42.805,6.029,CST-1368DR,9291,12998,15561,0.014,551
2019-05-30T01:39:15,42.805,6.029,CST-1368DR,9291,12996,15559,0.015,551
2019-05-30T01:42:17,42.805,6.029,CST-1368DR,9291,12998,15562,0.014,551
2019-05-30T01:45:18,42.805,6.029,CST-1368DR,9290,12997,15562,0.014,551
2019-05-30T01:48:19,42.805,6.029,CST-1368DR,9290,12996,15561,0.014,551
2019-05-30T01:51:21,42.805,6.029,CST-1368DR,9290,12996,15561,0.014,550
2019-05-30T01:54:22,42.805,6.029,CST-1368DR,9290,12996,15561,0.014,551
2019-05-30T01:57:24,42.805,6.029,CST-1368DR,9290,12996,15561,0.014,551
2019-05-30T02:00:25,42.805,6.029,CST-1368DR,9290,12992,15556,0.015,551
2019-05-30T02:03:27,42.805,6.029,CST-1368DR,9290,12996,15561,0.014,551
2019-05-30T02:06:28,42.805,6.029,CST-1368DR,9290,12996,15561,0.014,551
2019-05-30T02:09:29,42.805,6.029,CST-1368DR,9290,12997,15562,0.014,551
2019-05-30T02:12:31,42.805,6.029,CST-1368DR,9290,12996,15561,0.014,551
2019-05-30T02:15:32,42.805,6.029,CST-1368DR,9290,12997,15562,0.014,551
2019-05-30T02:18:34,42.805,6.029,CST-1368DR,9290,12996,15561,0.014,551
2019-05-30T02:21:35,42.805,6.029,CST-1368DR,9290,12993,15558,0.015,551
2019-05-30T02:24:36,42.805,6.029,CST-1368DR,9290,12995,15560,0.014,551
2019-05-30T02:27:38,42.805,6.029,CST-1368DR,9290,12996,15561,0.014,551
2019-05-30T02:30:39,42.805,6.029,CST-1368DR,9290,12995,15559,0.015,551
2019-05-30T02:33:41,42.805,6.029,CST-1368DR,9290,12994,15559,0.015,551
2019-05-30T02:36:42,42.805,6.029,CST-1368DR,9290,12994,15559,0.015,551
2019-05-30T02:39:43,42.805,6.029,CST-1368DR,9290,12995,15560,0.014,551
2019-05-30T02:42:45,42.805,6.029,CST-1368DR,9290,12995,15560,0.014,551
2019-05-30T02:45:46,42.805,6.029,CST-1368DR,9290,12994,15559,0.015,551
2019-05-30T02:48:48,42.805,6.029,CST-1368DR,9290,12992,15556,0.015,551
2019-05-30T02:51:49,42.805,6.029,CST-1368DR,9290,12995,15560,0.014,551
2019-05-30T02:54:50,42.805,6.029,CST-1368DR,9290,12995,15560,0.014,551
2019-05-30T02:57:52,42.805,6.029,CST-1368DR,9290,12994,15558,0.015,551
2019-05-30T03:00:53,42.805,6.029,CST-1368DR,9290,12994,15559,0.015,551
2019-05-30T03:03:55,42.805,6.029,CST-1368DR,9290,12996,15561,0.014,551
2019-05-30T03:06:56,42.805,6.029,CST-1368DR,9290,12996,15561,0.014,551
2019-05-30T03:09:58,42.805,6.029,CST-1368DR,9290,12996,15561,0.014,551
2019-05-30T03:12:59,42.805,6.029,CST-1368DR,9289,12994,15560,0.014,551
2019-05-30T03:16:00,42.805,6.029,CST-1368DR,9289,12994,15561,0.014,550
2019-05-30T03:19:02,42.805,6.029,CST-1368DR,9289,12996,15562,0.014,550
2019-05-30T03:22:03,42.805,6.029,CST-1368DR,9289,12995,15561,0.014,551
2019-05-30T03:25:05,42.805,6.029,CST-1368DR,9289,12995,15562,0.014,551
2019-05-30T03:28:06,42.805,6.029,CST-1368DR,9289,12995,15562,0.014,551
2019-05-30T03:31:07,42.805,6.029,CST-1368DR,9289,12994,15560,0.014,551
2019-05-30T03:34:09,42.805,6.029,CST-1368DR,9289,12996,15563,0.014,551
2019-05-30T03:37:10,42.805,6.029,CST-1368DR,9289,12995,15561,0.014,551
2019-05-30T03:40:12,42.805,6.029,CST-1368DR,9289,12993,15559,0.015,551
2019-05-30T03:43:13,42.805,6.029,CST-1368DR,9289,12994,15560,0.014,551
2019-05-30T03:46:14,42.805,6.029,CST-1368DR,9289,12996,15563,0.014,551
2019-05-30T03:49:16,42.805,6.029,CST-1368DR,9289,12996,15563,0.014,551
2019-05-30T03:52:17,42.805,6.029,CST-1368DR,9289,12996,15562,0.014,551
2019-05-30T03:55:19,42.805,6.029,CST-1368DR,9289,12996,15562,0.014,551
2019-05-30T03:58:20,42.805,6.029,CST-1368DR,9289,12995,15562,0.014,550
2019-05-30T04:01:21,42.805,6.029,CST-1368DR,9289,12994,15560,0.014,551
2019-05-30T04:04:23,42.805,6.029,CST-1368DR,9289,12993,15559,0.015,551
2019-05-30T04:07:24,42.805,6.029,CST-1368DR,9289,12997,15564,0.013,550
2019-05-30T04:10:26,42.805,6.029,CST-1368DR,9289,12996,15563,0.014,550
2019-05-30T04:13:27,42.805,6.029,CST-1368DR,9288,12995,15562,0.014,551
2019-05-30T04:16:29,42.805,6.029,CST-1368DR,9289,12993,15559,0.015,551
2019-05-30T04:19:30,42.805,6.029,CST-1368DR,9289,12998,15564,0.013,551
2019-05-30T04:22:31,42.805,6.029,CST-1368DR,9289,12996,15563,0.014,551
2019-05-30T04:25:33,42.805,6.029,CST-1368DR,9288,12994,15562,0.014,551
2019-05-30T04:28:34,42.805,6.029,CST-1368DR,9289,12993,15558,0.015,551
2019-05-30T04:31:36,42.805,6.029,CST-1368DR,9289,12996,15563,0.014,551
2019-05-30T04:34:37,42.805,6.029,CST-1368DR,9288,12997,15565,0.013,551
2019-05-30T04:37:38,42.805,6.029,CST-1368DR,9288,12996,15564,0.013,551
2019-05-30T04:40:40,42.805,6.029,CST-1368DR,9288,12997,15565,0.013,551
2019-05-30T04:43:41,42.805,6.029,CST-1368DR,9288,12998,15566,0.013,551
2019-05-30T04:46:43,42.805,6.029,CST-1368DR,9288,12995,15563,0.014,551
2019-05-30T04:49:44,42.805,6.029,CST-1368DR,9288,12998,15566,0.013,551
2019-05-30T04:52:45,42.805,6.029,CST-1368DR,9288,12995,15563,0.014,551
2019-05-30T04:55:47,42.805,6.029,CST-1368DR,9288,12993,15561,0.014,551
2019-05-30T04:58:48,42.805,6.029,CST-1368DR,9288,12998,15566,0.013,551
2019-05-30T05:01:50,42.805,6.029,CST-1368DR,9288,12996,15564,0.013,551
2019-05-30T05:04:51,42.805,6.029,CST-1368DR,9288,12993,15561,0.014,551
2019-05-30T05:07:53,42.805,6.029,CST-1368DR,9288,12990,15557,0.015,551
2019-05-30T05:10:54,42.805,6.029,CST-1368DR,9288,12994,15562,0.014,551
2019-05-30T05:13:55,42.805,6.029,CST-1368DR,9288,12998,15566,0.013,551
2019-05-30T05:16:57,42.805,6.029,CST-1368DR,9288,12998,15567,0.013,551
2019-05-30T05:19:58,42.805,6.029,CST-1368DR,9288,12997,15565,0.013,551
2019-05-30T05:23:00,42.805,6.029,CST-1368DR,9288,12996,15564,0.013,551
2019-05-30T05:26:01,42.805,6.029,CST-1368DR,9288,12997,15565,0.013,551
2019-05-30T05:29:02,42.805,6.029,CST-1368DR,9288,12997,15565,0.013,551
2019-05-30T05:32:04,42.805,6.029,CST-1368DR,9288,12996,15564,0.013,551
2019-05-30T05:35:05,42.805,6.029,CST-1368DR,9288,12998,15567,0.013,551
2019-05-30T05:38:07,42.805,6.029,CST-1368DR,9288,12998,15566,0.013,551
2019-05-30T05:41:08,42.805,6.029,CST-1368DR,9288,12997,15565,0.013,551
2019-05-30T05:44:09,42.805,6.029,CST-1368DR,9288,12998,15567,0.013,551
2019-05-30T05:47:11,42.805,6.029,CST-1368DR,9288,12995,15563,0.014,551
2019-05-30T05:50:12,42.805,6.029,CST-1368DR,9288,12997,15565,0.013,551
2019-05-30T05:53:14,42.805,6.029,CST-1368DR,9288,12995,15562,0.014,551
2019-05-30T05:56:15,42.805,6.029,CST-1368DR,9288,12996,15564,0.013,551
2019-05-30T05:59:16,42.805,6.029,CST-1368DR,9288,12996,15564,0.013,551
2019-05-30T06:02:18,42.805,6.029,CST-1368DR,9288,12995,15562,0.014,551
2019-05-30T06:05:19,42.805,6.029,CST-1368DR,9288,12997,15566,0.013,551
2019-05-30T06:08:21,42.805,6.029,CST-1368DR,9288,12994,15562,0.014,551
2019-05-30T06:11:22,42.805,6.029,CST-1368DR,9288,12997,15565,0.013,550
2019-05-30T06:14:24,42.805,6.029,CST-1368DR,9288,12996,15564,0.013,550
2019-05-30T06:17:25,42.805,6.029,CST-1368DR,9288,12998,15566,0.013,551
2019-05-30T06:20:26,42.805,6.029,CST-1368DR,9287,12996,15566,0.013,551
2019-05-30T06:23:28,42.805,6.029,CST-1368DR,9287,12996,15565,0.013,551
2019-05-30T06:26:29,42.805,6.029,CST-1368DR,9287,12997,15567,0.013,551
2019-05-30T06:29:31,42.805,6.029,CST-1368DR,9287,12992,15561,0.014,551
2019-05-30T06:32:32,42.805,6.029,CST-1368DR,9287,12994,15563,0.014,551
2019-05-30T06:35:33,42.805,6.029,CST-1368DR,9287,12996,15565,0.013,551
2019-05-30T06:38:35,42.805,6.029,CST-1368DR,9287,12995,15565,0.013,551
2019-05-30T06:41:36,42.805,6.029,CST-1368DR,9287,12996,15565,0.013,551
2019-05-30T06:44:38,42.805,6.029,CST-1368DR,9287,12996,15566,0.013,551
2019-05-30T06:47:39,42.805,6.029,CST-1368DR,9287,12996,15565,0.013,551
2019-05-30T06:50:40,42.805,6.029,CST-1368DR,9287,12995,15565,0.013,550
2019-05-30T06:53:42,42.805,6.029,CST-1368DR,9287,12994,15563,0.014,551
2019-05-30T06:56:43,42.805,6.029,CST-1368DR,9287,12993,15562,0.014,551
2019-05-30T06:59:45,42.805,6.029,CST-1368DR,9287,12996,15565,0.013,551
2019-05-30T07:02:46,42.805,6.029,CST-1368DR,9287,12995,15564,0.013,551
2019-05-30T07:05:48,42.805,6.029,CST-1368DR,9287,12995,15564,0.013,551
2019-05-30T07:08:49,42.805,6.029,CST-1368DR,9287,12996,15566,0.013,551
2019-05-30T07:11:50,42.805,6.029,CST-1368DR,9287,12994,15563,0.014,551
2019-05-30T07:14:52,42.805,6.029,CST-1368DR,9287,12991,15560,0.014,551
2019-05-30T07:17:53,42.805,6.029,CST-1368DR,9287,12994,15563,0.014,551
2019-05-30T07:20:55,42.805,6.029,CST-1368DR,9287,12994,15563,0.014,551
2019-05-30T07:23:56,42.805,6.029,CST-1368DR,9287,12993,15562,0.014,551
2019-05-30T07:26:57,42.805,6.029,CST-1368DR,9287,12995,15565,0.013,551
2019-05-30T07:29:59,42.805,6.029,CST-1368DR,9287,12996,15565,0.013,551
2019-05-30T07:33:00,42.805,6.029,CST-1368DR,9287,12994,15563,0.014,551
2019-05-30T07:36:02,42.805,6.029,CST-1368DR,9287,12995,15565,0.013,551
2019-05-30T07:39:03,42.805,6.029,CST-1368DR,9287,12996,15565,0.013,551
2019-05-30T07:42:04,42.805,6.029,CST-1368DR,9286,12996,15567,0.013,551
2019-05-30T07:45:06,42.805,6.029,CST-1368DR,9286,12996,15567,0.013,551
2019-05-30T07:48:07,42.805,6.029,CST-1368DR,9286,12993,15563,0.014,551
2019-05-30T07:51:09,42.805,6.029,CST-1368DR,9286,12993,15564,0.013,550
2019-05-30T07:54:10,42.805,6.029,CST-1368DR,9286,12996,15567,0.013,551
2019-05-30T07:57:11,42.805,6.029,CST-1368DR,9286,12993,15563,0.014,551
2019-05-30T08:00:13,42.805,6.029,CST-1368DR,9286,12991,15562,0.014,551
2019-05-30T08:03:14,42.805,6.029,CST-1368DR,9286,12995,15566,0.013,551
2019-05-30T08:06:16,42.805,6.029,CST-1368DR,9286,12992,15562,0.014,551
2019-05-30T08:09:17,42.805,6.029,CST-1368DR,9286,12994,15564,0.013,551
2019-05-30T08:12:19,42.805,6.029,CST-1368DR,9286,12995,15565,0.013,551
2019-05-30T08:15:20,42.805,6.029,CST-1368DR,9286,12996,15567,0.013,550
2019-05-30T08:18:21,42.805,6.029,CST-1368DR,9286,12994,15565,0.013,551
2019-05-30T08:21:23,42.805,6.029,CST-1368DR,9286,12994,15565,0.013,551
2019-05-30T08:24:24,42.805,6.029,CST-1368DR,9286,12995,15566,0.013,551
2019-05-30T08:27:26,42.805,6.029,CST-1368DR,9286,12993,15564,0.013,551
2019-05-30T08:30:27,42.805,6.029,CST-1368DR,9286,12992,15562,0.014,551
2019-05-30T08:33:28,42.805,6.029,CST-1368DR,9286,12994,15565,0.013,551
2019-05-30T08:36:30,42.805,6.029,CST-1368DR,9286,12993,15564,0.013,551
2019-05-30T08:39:31,42.805,6.029,CST-1368DR,9286,12994,15565,0.013,551
2019-05-30T08:42:33,42.805,6.029,CST-1368DR,9286,12994,15564,0.013,551
2019-05-30T08:45:34,42.805,6.029,CST-1368DR,9286,12994,15564,0.013,551
2019-05-30T08:48:35,42.805,6.029,CST-1368DR,9286,12994,15565,0.013,550
2019-05-30T08:51:37,42.805,6.029,CST-1368DR,9286,12990,15559,0.015,551
2019-05-30T08:54:38,42.805,6.029,CST-1368DR,9286,12991,15561,0.014,551
2019-05-30T08:57:40,42.805,6.029,CST-1368DR,9286,12994,15564,0.013,551
2019-05-30T09:00:41,42.805,6.029,CST-1368DR,9286,12992,15563,0.014,551
2019-05-30T09:03:42,42.805,6.029,CST-1368DR,9285,12990,15561,0.014,551
2019-05-30T09:06:44,42.805,6.029,CST-1368DR,9285,12994,15566,0.013,550
2019-05-30T09:09:45,42.805,6.029,CST-1368DR,9286,12991,15562,0.014,550
2019-05-30T09:12:47,42.805,6.029,CST-1368DR,9285,12991,15563,0.014,551
2019-05-30T09:15:48,42.805,6.029,CST-1368DR,9286,12992,15563,0.014,551
2019-05-30T09:18:50,42.805,6.029,CST-1368DR,9286,12992,15562,0.014,551
2019-05-30T09:21:51,42.805,6.029,CST-1368DR,9285,12994,15566,0.013,551
2019-05-30T09:24:52,42.805,6.029,CST-1368DR,9286,12992,15562,0.014,551
2019-05-30T09:27:54,42.805,6.029,CST-1368DR,9285,12993,15566,0.013,551
2019-05-30T09:30:55,42.805,6.029,CST-1368DR,9285,12994,15566,0.013,551
2019-05-30T09:33:57,42.805,6.029,CST-1368DR,9285,12992,15564,0.013,551
2019-05-30T09:36:58,42.805,6.029,CST-1368DR,9285,12993,15566,0.013,551
2019-05-30T09:39:59,42.805,6.029,CST-1368DR,9285,12992,15564,0.013,551
2019-05-30T09:43:01,42.805,6.029,CST-1368DR,9285,12994,15566,0.013,551
2019-05-30T09:46:02,42.805,6.029,CST-1368DR,9285,12993,15566,0.013,551
2019-05-30T09:49:04,42.805,6.029,CST-1368DR,9285,12993,15565,0.013,550
2019-05-30T09:52:05,42.805,6.029,CST-1368DR,9285,12992,15564,0.013,551
2019-05-30T09:55:06,42.805,6.029,CST-1368DR,9285,12994,15566,0.013,550
2019-05-30T09:58:08,42.805,6.029,CST-1368DR,9285,12992,15564,0.013,551
2019-05-30T10:01:09,42.805,6.029,CST-1368DR,9285,12992,15564,0.013,551
2019-05-30T10:04:11,42.805,6.029,CST-1368DR,9285,12993,15565,0.013,551
2019-05-30T10:07:12,42.805,6.029,CST-1368DR,9285,12989,15560,0.014,551
2019-05-30T10:10:13,42.805,6.029,CST-1368DR,9285,12990,15561,0.014,551
2019-05-30T10:13:15,42.805,6.029,CST-1368DR,9285,12992,15563,0.014,551
2019-05-30T10:16:16,42.805,6.029,CST-1368DR,9285,12991,15563,0.014,551
2019-05-30T10:19:18,42.805,6.029,CST-1368DR,9285,12990,15562,0.014,551
2019-05-30T10:22:19,42.805,6.029,CST-1368DR,9285,12991,15563,0.014,551
2019-05-30T10:25:21,42.805,6.029,CST-1368DR,9285,12993,15565,0.013,551
2019-05-30T10:28:22,42.805,6.029,CST-1368DR,9285,12988,15560,0.014,551
2019-05-30T10:31:23,42.805,6.029,CST-1368DR,9285,12990,15562,0.014,551
2019-05-30T10:34:25,42.805,6.029,CST-1368DR,9285,12991,15562,0.014,550
2019-05-30T10:37:26,42.805,6.029,CST-1368DR,9284,12988,15561,0.014,551
2019-05-30T10:40:28,42.805,6.029,CST-1368DR,9285,12989,15560,0.014,551
2019-05-30T10:43:29,42.805,6.029,CST-1368DR,9285,12989,15560,0.014,551
2019-05-30T10:46:30,42.805,6.029,CST-1368DR,9284,12992,15565,0.013,551
2019-05-30T10:49:32,42.805,6.029,CST-1368DR,9284,12992,15565,0.013,551
2019-05-30T10:52:33,42.805,6.029,CST-1368DR,9284,12989,15562,0.014,551
2019-05-30T10:55:35,42.805,6.029,CST-1368DR,9284,12992,15565,0.013,551
2019-05-30T10:58:36,42.805,6.029,CST-1368DR,9284,12990,15563,0.014,551
2019-05-30T11:01:37,42.805,6.029,CST-1368DR,9284,12990,15563,0.014,551
2019-05-30T11:04:39,42.805,6.029,CST-1368DR,9284,12987,15560,0.014,550
2019-05-30T11:07:40,42.805,6.029,CST-1368DR,9284,12989,15562,0.014,551
2019-05-30T11:10:42,42.805,6.029,CST-1368DR,9284,12988,15560,0.014,550
2019-05-30T11:13:43,42.805,6.029,CST-1368DR,9284,12989,15562,0.014,551
2019-05-30T11:16:45,42.805,6.029,CST-1368DR,9284,12990,15563,0.014,551
2019-05-30T11:19:46,42.805,6.029,CST-1368DR,9284,12992,15565,0.013,551
2019-05-30T11:22:47,42.805,6.029,CST-1368DR,9284,12989,15562,0.014,551
2019-05-30T11:25:49,42.805,6.029,CST-1368DR,9284,12989,15562,0.014,551
2019-05-30T11:28:50,42.805,6.029,CST-1368DR,9284,12990,15563,0.014,551
2019-05-30T11:31:52,42.805,6.029,CST-1368DR,9284,12990,15563,0.014,551
2019-05-30T11:34:53,42.805,6.029,CST-1368DR,9284,12991,15564,0.013,551
2019-05-30T11:37:54,42.805,6.029,CST-1368DR,9284,12991,15564,0.013,551
2019-05-30T11:40:56,42.805,6.029,CST-1368DR,9284,12991,15564,0.013,551
2019-05-30T11:43:57,42.805,6.029,CST-1368DR,9284,12989,15562,0.014,551
2019-05-30T11:46:59,42.805,6.029,CST-1368DR,9284,12987,15559,0.015,551
2019-05-30T11:50:00,42.805,6.029,CST-1368DR,9284,12992,15565,0.013,551
2019-05-30T11:53:01,42.805,6.029,CST-1368DR,9284,12991,15564,0.013,551
2019-05-30T11:56:03,42.805,6.029,CST-1368DR,9284,12991,15565,0.013,550
2019-05-30T11:59:04,42.805,6.029,CST-1368DR,9284,12991,15564,0.013,551
2019-05-30T12:02:06,42.805,6.029,CST-1368DR,9283,12990,15565,0.013,551
2019-05-30T12:05:07,42.805,6.029,CST-1368DR,9283,12989,15563,0.014,551
2019-05-30T12:08:08,42.805,6.029,CST-1368DR,9283,12990,15565,0.013,551
2019-05-30T12:11:10,42.805,6.029,CST-1368DR,9283,12990,15565,0.013,551
2019-05-30T12:14:11,42.805,6.029,CST-1368DR,9283,12986,15560,0.014,551
2019-05-30T12:17:13,42.805,6.029,CST-1368DR,9283,12992,15566,0.013,551
2019-05-30T12:20:14,42.805,6.029,CST-1368DR,9283,12989,15564,0.013,551
2019-05-30T12:23:16,42.805,6.029,CST-1368DR,9283,12988,15562,0.014,551
2019-05-30T12:26:17,42.805,6.029,CST-1368DR,9283,12990,15565,0.013,551
2019-05-30T12:29:18,42.805,6.029,CST-1368DR,9283,12991,15566,0.013,551
2019-05-30T12:32:20,42.805,6.029,CST-1368DR,9283,12990,15565,0.013,551
2019-05-30T12:35:21,42.805,6.029,CST-1368DR,9283,12987,15560,0.014,551
2019-05-30T12:38:23,42.805,6.029,CST-1368DR,9283,12990,15565,0.013,551
2019-05-30T12:41:24,42.805,6.029,CST-1368DR,9283,12991,15566,0.013,550
2019-05-30T12:44:25,42.805,6.029,CST-1368DR,9283,12988,15562,0.014,551
2019-05-30T12:47:27,42.805,6.029,CST-1368DR,9283,12991,15566,0.013,551
2019-05-30T12:50:28,42.805,6.029,CST-1368DR,9283,12991,15565,0.013,551
2019-05-30T12:53:30,42.805,6.029,CST-1368DR,9283,12989,15563,0.014,551
2019-05-30T12:56:31,42.805,6.029,CST-1368DR,9283,12990,15564,0.013,551
2019-05-30T12:59:32,42.805,6.029,CST-1368DR,9283,12988,15563,0.014,551
2019-05-30T13:02:34,42.805,6.029,CST-1368DR,9283,12987,15560,0.014,551
2019-05-30T13:05:35,42.805,6.029,CST-1368DR,9283,12985,15558,0.015,551
2019-05-30T13:08:37,42.805,6.029,CST-1368DR,9283,12990,15565,0.013,551
2019-05-30T13:11:38,42.805,6.029,CST-1368DR,9283,12990,15565,0.013,550
2019-05-30T13:14:40,42.805,6.029,CST-1368DR,9283,12986,15560,0.014,551
2019-05-30T13:17:41,42.805,6.029,CST-1368DR,9283,12989,15564,0.013,551
2019-05-30T13:20:42,42.805,6.029,CST-1368DR,9283,12988,15562,0.014,551
2019-05-30T13:23:44,42.805,6.029,CST-1368DR,9283,12987,15561,0.014,551
2019-05-30T13:26:45,42.805,6.029,CST-1368DR,9283,12988,15562,0.014,551
2019-05-30T13:29:47,42.805,6.029,CST-1368DR,9283,12990,15564,0.013,551
2019-05-30T13:32:48,42.805,6.029,CST-1368DR,9283,12989,15563,0.014,550
2019-05-30T13:35:49,42.805,6.029,CST-1368DR,9283,12990,15565,0.013,551
2019-05-30T13:38:51,42.805,6.029,CST-1368DR,9282,12989,15565,0.013,551
2019-05-30T13:41:52,42.805,6.029,CST-1368DR,9282,12988,15564,0.013,551
2019-05-30T13:44:54,42.805,6.029,CST-1368DR,9282,12989,15565,0.013,551
2019-05-30T13:47:55,42.805,6.029,CST-1368DR,9282,12989,15565,0.013,551
2019-05-30T13:50:56,42.805,6.029,CST-1368DR,9282,12989,15564,0.013,551
2019-05-30T13:53:58,42.805,6.029,CST-1368DR,9282,12990,15567,0.013,551
2019-05-30T13:56:59,42.805,6.029,CST-1368DR,9282,12988,15564,0.013,551
2019-05-30T14:00:01,42.805,6.029,CST-1368DR,9282,12989,15565,0.013,551
2019-05-30T14:03:02,42.805,6.029,CST-1368DR,9282,12989,15564,0.013,551
2019-05-30T14:06:03,42.805,6.029,CST-1368DR,9282,12989,15565,0.013,551
2019-05-30T14:09:05,42.805,6.029,CST-1368DR,9282,12989,15564,0.013,551
2019-05-30T14:12:06,42.805,6.029,CST-1368DR,9282,12988,15564,0.013,551
2019-05-30T14:15:08,42.805,6.029,CST-1368DR,9282,12988,15564,0.013,551
2019-05-30T14:18:09,42.805,6.029,CST-1368DR,9282,12988,15564,0.013,550
2019-05-30T14:21:11,42.805,6.029,CST-1368DR,9282,12987,15562,0.014,551
2019-05-30T14:24:12,42.805,6.029,CST-1368DR,9282,12988,15564,0.013,551
2019-05-30T14:27:13,42.805,6.029,CST-1368DR,9282,12989,15564,0.013,551
2019-05-30T14:30:15,42.805,6.029,CST-1368DR,9282,12986,15561,0.014,551
2019-05-30T14:33:16,42.805,6.029,CST-1368DR,9282,12987,15563,0.014,551
2019-05-30T14:36:18,42.805,6.029,CST-1368DR,9282,12977,15551,0.017,550
2019-05-30T14:39:19,42.805,6.029,CST-1368DR,9282,12987,15563,0.014,551
2019-05-30T14:42:20,42.805,6.029,CST-1368DR,9282,12989,15565,0.013,550
2019-05-30T14:45:22,42.805,6.029,CST-1368DR,9282,12987,15563,0.014,551
2019-05-30T14:48:23,42.805,6.029,CST-1368DR,9282,12987,15562,0.014,551
2019-05-30T14:51:25,42.805,6.029,CST-1368DR,9282,12987,15562,0.014,551
2019-05-30T14:54:26,42.805,6.029,CST-1368DR,9282,12989,15565,0.013,551
2019-05-30T14:57:27,42.805,6.029,CST-1368DR,9282,12988,15564,0.013,551
2019-05-30T15:00:29,42.805,6.029,CST-1368DR,9282,12988,15564,0.013,551
2019-05-30T15:03:30,42.805,6.029,CST-1368DR,9281,12988,15565,0.013,551
2019-05-30T15:06:32,42.805,6.029,CST-1368DR,9281,12985,15561,0.014,551
2019-05-30T15:09:33,42.805,6.029,CST-1368DR,9281,12987,15564,0.013,551
2019-05-30T15:12:34,42.805,6.029,CST-1368DR,9281,12988,15565,0.013,550
2019-05-30T15:15:36,42.805,6.029,CST-1368DR,9281,12986,15563,0.014,551
2019-05-30T15:18:37,42.805,6.029,CST-1368DR,9281,12988,15565,0.013,551
2019-05-30T15:21:39,42.805,6.029,CST-1368DR,9281,12985,15562,0.014,550
2019-05-30T15:24:40,42.805,6.029,CST-1368DR,9281,12987,15564,0.013,551
2019-05-30T15:27:42,42.805,6.029,CST-1368DR,9281,12986,15563,0.014,551
2019-05-30T15:30:43,42.805,6.029,CST-1368DR,9281,12987,15564,0.013,551
2019-05-30T15:33:44,42.805,6.029,CST-1368DR,9281,12986,15562,0.014,551
2019-05-30T15:36:46,42.805,6.029,CST-1368DR,9281,12986,15563,0.014,551
2019-05-30T15:39:47,42.805,6.029,CST-1368DR,9281,12985,15562,0.014,550
2019-05-30T15:42:49,42.805,6.029,CST-1368DR,9281,12987,15564,0.013,551
2019-05-30T15:45:50,42.805,6.029,CST-1368DR,9281,12987,15564,0.013,551
2019-05-30T15:48:51,42.805,6.029,CST-1368DR,9281,12988,15565,0.013,551
2019-05-30T15:51:53,42.805,6.029,CST-1368DR,9281,12987,15564,0.013,551
2019-05-30T15:54:54,42.805,6.029,CST-1368DR,9281,12977,15552,0.016,551
2019-05-30T15:57:56,42.805,6.029,CST-1368DR,9281,12987,15564,0.013,551
2019-05-30T16:00:57,42.805,6.029,CST-1368DR,9281,12987,15564,0.013,550
2019-05-30T16:03:58,42.805,6.029,CST-1368DR,9281,12980,15556,0.015,550
2019-05-30T16:07:00,42.805,6.029,CST-1368DR,9281,12986,15562,0.014,550
2019-05-30T16:10:01,42.805,6.029,CST-1368DR,9281,12984,15560,0.014,551
2019-05-30T16:13:03,42.805,6.029,CST-1368DR,9281,12988,15565,0.013,551
2019-05-30T16:16:04,42.805,6.029,CST-1368DR,9281,12986,15563,0.014,551
2019-05-30T16:19:05,42.805,6.029,CST-1368DR,9280,12974,15550,0.017,551
2019-05-30T16:22:07,42.805,6.029,CST-1368DR,9281,12985,15561,0.014,551
2019-05-30T16:25:08,42.805,6.029,CST-1368DR,9281,12987,15564,0.013,551
2019-05-30T16:28:10,42.805,6.029,CST-1368DR,9281,12985,15562,0.014,551
2019-05-30T16:31:11,42.805,6.029,CST-1368DR,9280,12985,15563,0.014,551
2019-05-30T16:34:13,42.805,6.029,CST-1368DR,9281,12987,15564,0.013,551
2019-05-30T16:37:14,42.805,6.029,CST-1368DR,9280,12986,15564,0.013,551